CW8095 Weather Reports


Display with metric or nautical units.
time (UTC)temp
F
wind
direction
speed
MPH
gust
MPH
rain 1hr
in
rain 24hr
in
rain mn
in
humidity
%
barometer
mb
20260906041536 79 153 2.0 6.0 0.00 0.00 0.00 59 1012.9
20260906040528 80 144 1.0 4.0 0.00 0.00 0.00 58 1012.8
20260906035525 80 160 1.0 6.0 0.00 0.00 0.00 58 1012.7
20260906034540 80 154 1.0 3.0 0.00 0.00 0.00 57 1012.9
20260906033552 80 156 1.0 4.0 0.00 0.00 0.00 56 1012.9
20260906032526 80 149 2.0 4.0 0.00 0.00 0.00 56 1012.9
20260906031522 81 135 1.0 4.0 0.00 0.00 0.00 55 1012.9
20260906030528 81 138 2.0 6.0 0.00 0.00 0.00 55 1012.9
20260906025524 81 146 2.0 6.0 0.00 0.00 0.00 54 1012.8
20260906024518 81 118 3.0 8.0 0.00 0.00 0.00 54 1012.8
20260906023541 81 137 3.0 8.0 0.00 0.00 0.00 53 1012.7
20260906022524 82 132 4.0 7.0 0.00 0.00 0.00 53 1012.4
20260906021518 82 132 4.0 11.0 0.00 0.00 0.00 52 1012.3
20260906020548 82 131 4.0 8.0 0.00 0.00 0.00 52 1012.1
20260906015522 82 133 3.0 8.0 0.00 0.00 0.00 51 1012.0
20260906014537 82 136 5.0 11.0 0.00 0.00 0.00 51 1011.8
20260906013526 83 135 6.0 8.0 0.00 0.00 0.00 51 1011.7
20260906012527 84 118 6.0 16.0 0.00 0.00 0.00 50 1011.5
20260906011521 84 137 6.0 11.0 0.00 0.00 0.00 48 1011.3
20260906010516 86 133 6.0 14.0 0.00 0.00 0.00 46 1011.4
20260906005527 86 127 6.0 16.0 0.00 0.00 0.00 44 1011.3
20260906004522 87 119 8.0 14.0 0.00 0.00 0.00 43 1011.4
20260906003537 88 132 6.0 11.0 0.00 0.00 0.00 42 1011.2
20260906002527 91 122 9.0 16.0 0.00 0.00 0.00 36 1011.0
20260906001543 92 123 4.0 7.0 0.00 0.00 0.00 33 1010.9
20260906000518 92 113 5.0 9.0 0.00 0.00 0.00 32 1010.8
20260905235528 93 116 6.0 10.0 0.00 0.00 0.00 31 1010.8
20260905234523 95 101 6.0 10.0 0.00 0.00 0.00 30 1010.6
20260905233518 95 117 3.0 7.0 0.00 0.00 0.00 29 1010.6
20260905232548 96 129 1.0 3.0 0.00 0.00 0.00 28 1010.5
20260905231524 97 73 4.0 10.0 0.00 0.00 0.00 27 1010.6
20260905230519 98 119 2.0 6.0 0.00 0.00 0.00 26 1010.5
20260905225549 98 326 1.0 3.0 0.00 0.00 0.00 27 1010.4
20260905224524 98 135 2.0 4.0 0.00 0.00 0.00 26 1010.6
20260905223519 98 85 3.0 9.0 0.00 0.00 0.00 27 1010.5
20260905222529 98 155 1.0 6.0 0.00 0.00 0.00 26 1010.5
20260905221524 99 98 3.0 7.0 0.00 0.00 0.00 26 1010.4
20260905220539 98 100 2.0 7.0 0.00 0.00 0.00 28 1010.6
20260905215530 97 154 1.0 2.0 0.00 0.00 0.00 28 1010.8
20260905214525 99 150 1.0 4.0 0.00 0.00 0.00 27 1010.8
20260905213520 99 144 2.0 6.0 0.00 0.00 0.00 27 1010.9
20260905212530 99 109 2.0 6.0 0.00 0.00 0.00 27 1011.1
20260905211525 99 112 2.0 6.0 0.00 0.00 0.00 28 1011.3
20260905210520 98 178 2.0 7.0 0.00 0.00 0.00 28 1011.3
20260905205515 98 311 2.0 7.0 0.00 0.00 0.00 29 1011.4
20260905204606 97 265 1.0 3.0 0.00 0.00 0.00 30 1011.6
20260905203552 96 293 2.0 4.0 0.00 0.00 0.00 31 1011.7
20260905202515 97 297 2.0 4.0 0.00 0.00 0.00 29 1011.9
20260905201526 95 60 2.0 3.0 0.00 0.00 0.00 32 1012.0
20260905201049 94 144 1.0 2.0 0.00 0.00 0.00 32 1012.1
20260905200024 95 114 2.0 4.0 0.00 0.00 0.00 31 1012.3
20260905195020 95 138 1.0 3.0 0.00 0.00 0.00 31 1012.5
20260905194016 98 175 2.0 7.0 0.00 0.00 0.00 30 1012.6
20260905193026 99 160 2.0 6.0 0.00 0.00 0.00 28 1012.7
20260905192042 100 141 3.0 8.0 0.00 0.00 0.00 28 1012.8
20260905191017 98 117 2.0 6.0 0.00 0.00 0.00 30 1013.0
20260905190048 97 126 2.0 4.0 0.00 0.00 0.00 31 1013.2
20260905185023 94 247 3.0 4.0 0.00 0.00 0.00 33 1013.4
20260905184019 95 208 1.0 3.0 0.00 0.00 0.00 32 1013.7
20260905183029 98 146 2.0 6.0 0.00 0.00 0.00 30 1013.7
20260905182025 98 159 1.0 6.0 0.00 0.00 0.00 30 1013.9
20260905181020 97 103 3.0 8.0 0.00 0.00 0.00 31 1014.1
20260905180036 97 141 4.0 11.0 0.00 0.00 0.00 31 1014.2
20260905175025 96 153 2.0 4.0 0.00 0.00 0.00 32 1014.4
20260905174020 96 105 2.0 6.0 0.00 0.00 0.00 32 1014.5
20260905173116 96 128 2.0 6.0 0.00 0.00 0.00 32 1014.7
20260905172026 95 178 2.0 9.0 0.00 0.00 0.00 34 1014.7
20260905171022 96 143 3.0 8.0 0.00 0.00 0.00 32 1014.8
20260905170018 94 98 3.0 4.0 0.00 0.00 0.00 34 1015.0
20260905165028 94 139 2.0 7.0 0.00 0.00 0.00 35 1014.9
20260905164023 93 149 2.0 6.0 0.00 0.00 0.00 35 1015.0
20260905163018 92 157 1.0 6.0 0.00 0.00 0.00 36 1015.0
20260905162029 92 124 2.0 6.0 0.00 0.00 0.00 37 1015.0
20260905161024 90 263 1.0 2.0 0.00 0.00 0.00 40 1014.9
20260905160020 90 221 1.0 2.0 0.00 0.00 0.00 40 1014.9
20260905155016 89 229 1.0 4.0 0.00 0.00 0.00 42 1014.9
20260905154026 89 95 2.0 3.0 0.00 0.00 0.00 42 1014.8
20260905153042 88 153 2.0 4.0 0.00 0.00 0.00 43 1014.9
20260905152017 87 244 1.0 2.0 0.00 0.00 0.00 46 1014.9
20260905151028 85 184 2.0 4.0 0.00 0.00 0.00 48 1014.8
20260905150023 85 167 1.0 4.0 0.00 0.00 0.00 49 1014.8
20260905145019 83 178 1.0 3.0 0.00 0.00 0.00 52 1015.0
20260905144029 82 264 1.0 3.0 0.00 0.00 0.00 54 1014.9
20260905143025 81 151 1.0 3.0 0.00 0.00 0.00 56 1014.9
20260905142021 80 169 0.0 2.0 0.00 0.00 0.00 59 1014.8
20260905141016 79 161 2.0 6.0 0.00 0.00 0.00 61 1014.9
20260905140027 77 155 0.0 2.0 0.00 0.00 0.00 64 1014.7
20260905135043 76 149 1.0 4.0 0.00 0.00 0.00 66 1014.7
20260905134018 74 154 1.0 3.0 0.00 0.00 0.00 68 1014.7
20260905133049 73 168 1.0 3.0 0.00 0.00 0.00 70 1014.6
20260905132024 72 167 2.0 3.0 0.00 0.00 0.00 71 1014.5
20260905131527 72 168 1.0 3.0 0.00 0.00 0.00 71 1014.5
20260905130521 71 160 2.0 4.0 0.00 0.00 0.00 72 1014.2
20260905125516 71 157 2.0 4.0 0.00 0.00 0.00 72 1014.1
20260905124527 71 166 1.0 3.0 0.00 0.00 0.00 72 1014.2
20260905123521 70 171 1.0 2.0 0.00 0.00 0.00 73 1014.1
20260905122516 70 171 1.0 2.0 0.00 0.00 0.00 73 1014.1
20260905121526 70 172 0.0 1.0 0.00 0.00 0.00 73 1014.1
20260905120521 70 171 0.0 1.0 0.00 0.00 0.00 73 1014.0
20260905115516 70 0.0 0.0 0.00 0.00 0.00 73 1013.9
20260905114526 70 0.0 0.0 0.00 0.00 0.00 72 1014.1
20260905113521 70 171 0.0 1.0 0.00 0.00 0.00 72 1014.0
20260905112516 71 171 0.0 1.0 0.00 0.00 0.00 72 1013.9
20260905111526 71 171 0.0 1.0 0.00 0.00 0.00 72 1013.9
20260905110521 71 171 0.0 1.0 0.00 0.00 0.00 72 1013.9
20260905105516 71 0.0 0.0 0.00 0.00 0.00 72 1014.0
20260905104526 71 171 0.0 1.0 0.00 0.00 0.00 70 1013.8
20260905103541 71 171 1.0 4.0 0.00 0.00 0.00 71 1013.7
20260905102516 71 159 1.0 2.0 0.00 0.00 0.00 70 1013.8
20260905101526 72 165 1.0 3.0 0.00 0.00 0.00 70 1013.8
20260905100521 72 165 0.0 2.0 0.00 0.00 0.00 69 1013.8
20260905095516 72 167 1.0 4.0 0.00 0.00 0.00 69 1013.8
20260905094526 72 172 1.0 3.0 0.00 0.00 0.00 69 1013.7
20260905093521 72 181 0.0 2.0 0.00 0.00 0.00 69 1013.7
20260905092516 72 167 1.0 3.0 0.00 0.00 0.00 68 1013.7
20260905091546 72 177 0.0 2.0 0.00 0.00 0.00 68 1013.6
20260905090521 73 0.0 0.0 0.00 0.00 0.00 68 1013.6
20260905085536 73 0.0 0.0 0.00 0.00 0.00 68 1013.6
20260905084526 73 172 0.0 2.0 0.00 0.00 0.00 67 1013.5
20260905083520 73 161 0.0 2.0 0.00 0.00 0.00 67 1013.4
20260905082515 74 186 0.0 2.0 0.00 0.00 0.00 66 1013.3
20260905081525 74 161 0.0 1.0 0.00 0.00 0.00 65 1013.4
20260905080520 74 171 1.0 3.0 0.00 0.00 0.00 65 1013.4
20260905075529 74 168 1.0 4.0 0.00 0.00 0.00 64 1013.4
20260905074545 75 175 1.0 3.0 0.00 0.00 0.00 64 1013.2
20260905073531 75 150 1.0 3.0 0.00 0.00 0.00 64 1013.3
20260905072528 75 173 2.0 4.0 0.00 0.00 0.00 63 1013.4
20260905071529 75 160 1.0 3.0 0.00 0.00 0.00 63 1013.6
20260905070525 75 160 1.0 4.0 0.00 0.00 0.00 62 1013.6
20260905065523 76 167 2.0 4.0 0.00 0.00 0.00 62 1013.8
20260905064547 76 178 1.0 3.0 0.00 0.00 0.00 61 1013.8
20260905063533 76 171 2.0 4.0 0.00 0.00 0.00 61 1013.8
20260905062540 76 174 2.0 4.0 0.00 0.00 0.00 60 1013.9
20260905061531 77 171 2.0 6.0 0.00 0.00 0.00 60 1013.9
20260905060554 77 174 2.0 6.0 0.00 0.00 0.00 59 1013.8
20260905055534 77 168 1.0 3.0 0.00 0.00 0.00 59 1013.8
20260905054517 77 168 2.0 6.0 0.00 0.00 0.00 58 1013.7
20260905053531 78 167 2.0 4.0 0.00 0.00 0.00 58 1013.7
20260905052527 78 158 1.0 4.0 0.00 0.00 0.00 57 1013.6
20260905051523 78 172 1.0 2.0 0.00 0.00 0.00 56 1013.5
20260905050552 78 165 2.0 6.0 0.00 0.00 0.00 56 1013.5
20260905045530 79 167 3.0 7.0 0.00 0.00 0.00 55 1013.4
20260905044530 79 161 2.0 6.0 0.00 0.00 0.00 54 1013.5
20260905043543 79 170 2.0 4.0 0.00 0.00 0.00 53 1013.5
20260905042519 80 170 4.0 7.0 0.00 0.00 0.00 53 1013.5